www.pogodaiklimat.ru

Погода и климат >> Архив погоды >> Украина >> Александрополь


ПОГОДА в Александрополе

  • Прогноз погоды в Александрополе
  • Монитор погоды в Александрополе

АРХИВ ПОГОДЫ в Александрополе

Время (UTC), дата Ветер
(напр.,м/с)
 
Видим.   Явления Облачность Т
(С)
Тd
(С)
f
(%)
Тe
(С)
Тes
(С)
Комфортность P
(гПа)
Po
(гПа)
Тmin
(С)
Tmax
(С)
R
(мм)
R24
(мм)
S
(см)
06 10.07 ЮЗ 3 20 км {ливн. осадки} ясно +17.2 +12.5 74 +17 +25 1007.6 992.9 +11.0 2
09 10.07 З 3 20 км 6/6 600 м
[Cu med, cong]
+21.0 +10.4 51 +23 +29 комфорт 1006.7 992.2
12 10.07 ЮЗ 4 20 км 4/4 600 м
[Cu med, cong]
+22.7 +10.2 45 +25 +30 комфорт 1005.6 991.2
15 10.07 ЮЗ 2 20 км 8/4 600 м
[Cu med, cong Cs]
+22.3 +7.9 40 +23 +25 комфорт 1005.0 990.6
18 10.07 ЮЗ 2 10 км 8/3 600 м
[Cu med, cong Ac trans]
+19.4 +9.7 53 +21 +21 комфорт 1005.8 991.2 +24.1
21 10.07 штиль 0 10 км 4/0
[Ac trans]
+14.8 +9.8 72 +15 +15 1006.5 991.7
00 11.07 З 1 10 км 10/0
[Ac und]
+13.7 +9.8 77 +14 +14 1005.8 990.9
03 11.07 штиль 0 10 км 10/0
[Ac und]
+13.8 +11.9 88 +13 +14 1005.3 990.4
06 11.07 штиль 0 20 км 10/10 600 м
[Cb cap]
+16.6 +12.3 76 +17 +17 1005.8 991.1 +12.1
09 11.07 ЮЗ 2 20 км {ливн. осадки} 10/10 600 м
[Cb cap]
+21.3 +10.6 50 +23 +23 комфорт 1005.0 990.5
12 11.07 Ю 3 4000 м слаб. ливневой дождь 8/8 600 м
[Cb cap]
+20.4 +11.2 55 +22 +25 комфорт 1004.9 990.4
15 11.07 З 2 20 км {ливн. осадки} 8/8 600 м
[Cb cap]
+22.9 +10.0 44 +25 +25 комфорт 1004.5 990.1
18 11.07 штиль 0 10 км {ливн. осадки} 6/6 600 м
[Sc diur, vesp]
+19.4 +11.9 62 +20 +20 1005.7 991.1 +22.9 0.0
21 11.07 штиль 0 10 км 4/4 600 м
[Sc]
+16.4 +11.6 73 +16 +16 1006.3 991.6
00 12.07 штиль 0 10 км ясно +12.0 +10.7 92 +11 +11 1006.7 991.7
03 12.07 штиль 0 10 км 3/0
[Ac trans]
+12.0 +10.5 91 +11 +12 1006.9 991.9
06 12.07 штиль 0 20 км ясно +20.3 +13.0 63 +22 +35 комфорт 1006.9 992.3 +10.8
09 12.07 СЗ 1 20 км 8/8 600 м
[Cb cap]
+23.0 +11.3 48 +25 +29 комфорт 1006.7 992.3
12 12.07 З 2 20 км 9/6 600 м
[Cb cap Ci fib]
+23.5 +10.1 43 +25 +29 комфорт 1006.0 991.6
15 12.07 З 1 20 км 8/6 600 м
[Cb cap Ci fib]
+23.3 +9.6 42 +25 +26 комфорт 1006.2 991.8
18 12.07 штиль 0 10 км 9/5 600 м
[Sc Ac trans]
+19.5 +11.8 61 +21 +21 комфорт 1007.3 992.7 +24.9
21 12.07 штиль 0 10 км 3/0
[Ac trans]
+17.4 +10.7 65 +17 +17 1008.1 993.4
00 13.07 штиль 0 10 км 8/8 600 м
[Sc]
+15.3 +10.8 75 +15 +15 1007.8 993.0
03 13.07 штиль 0 10 км 8/0
[Ac trans Cs]
+14.3 +11.1 81 +14 +15 1007.7 992.8
06 13.07 З 1 20 км 4/0
[Cs]
+21.2 +11.1 52 +23 +33 комфорт 1007.7 993.2 +13.8
09 13.07 З 2 20 км 8/8 600 м
[Cu med, cong]
+23.4 +10.0 43 +25 +29 комфорт 1007.4 993.0
12 13.07 З 2 20 км 9/9 600 м
[Cb cap]
+24.6 +9.3 38 +25 +27 комфорт 1006.8 992.5
15 13.07 ЮЗ 5 4000 м слаб. ливневой дождь 8/8 600 м
[Cb cap]
+23.9 +11.4 45 +25 +26 комфорт 1007.0 992.6
18 13.07 ЮЗ 2 10 км {ливн. осадки} 6/6 600 м
[Cb cap]
+20.1 +11.3 57 +22 +22 комфорт 1008.6 994.0 +25.5 0.0
21 13.07 штиль 0 10 км ясно +17.2 +11.3 68 +17 +17 1009.3 994.6
00 14.07 штиль 0 10 км 3/0
[Ac trans]
+15.0 +10.7 75 +15 +15 1009.2 994.3
03 14.07 штиль 0 10 км ясно +12.3 +10.8 91 +12 +13 1009.6 994.6
06 14.07 С 1 20 км ясно +21.3 +12.7 58 +24 +34 комфорт 1009.4 994.9 +12.0
12 14.07 СЗ 2 20 км 3/3 600 м
[Cu med, cong]
+26.4 +12.8 43 +28 +37 жарко 1007.7 993.4
18 14.07 штиль 0 10 км 9/8 600 м
[Sc Ci sp]
+21.2 +13.8 63 +24 +24 комфорт 1008.5 994.0 +27.2
00 15.07 штиль 0 10 км ясно +14.8 +12.6 87 +14 +14 1008.1 993.3
06 15.07 В 1 20 км ясно +22.3 +12.3 53 +25 +36 комфорт 1007.8 993.3 +13.5
12 15.07 ЮВ 2 20 км 8/5 600 м
[Cb cap Ci fib]
+27.9 +12.4 38 +29 +35 жарко 1005.5 991.3
18 15.07 штиль 0 10 км 9/6 600 м
[Cb cap Ac trans]
+23.3 +14.6 58 +27 +27 душно 1006.3 991.9 +28.4
00 16.07 Ю 3 10 км 10/10 600 м
[Cb cap]
+19.2 +16.2 83 +21 +21 комфорт 1007.1 992.5
06 16.07 СВ 1 10 км в посл. час ливневой дождь 10/10 600 м
[Cb cap]
+19.2 +16.9 87 +22 +22 комфорт 1006.6 992.0 +17.0 1
18 16.07 штиль 0 10 км 8/8 600 м
[Sc diur, vesp]
+18.2 +15.1 82 +18 +18 1006.9 992.2 +23.7

 

Местоположение метеостанции Александрополь (Днепропетровская область, Украина): широта 48.60 долгота 36.55 высота над уровнем моря 125 м.

В архиве по умолчанию представлена погода в Александрополе за последнюю неделю. Архивные данные за месяц целиком и за предыдущие месяцы, начиная с января 2011 года, Вы можете получить, выбрав интересующий диапазон дат из раскрывающегося списка и нажав кнопку "Ввод!".


*Определитесь, кто Вы:
робот инопланетянин человек

Внимание! Время в таблицах - всемирное. Для получения местного времени необходимо прибавить поправку, которая равна 2 ч.

Смотрите также архив погоды в соседних городах и на ближайших метеорологических станциях:

Погода в Лозовой (Харьковская область, Украина) (37 км)
Погода в Павлограде (Днепропетровская область, Украина) (54 км)
Погода в Чаплино (Днепропетровская область, Украина) (57 км)
Погода в Синельниково (Днепропетровская область, Украина) (81 км)
Погода в Изюме (Харьковская область, Украина) (85 км)
Погода в Губинихе (Днепропетровская область, Украина) (98 км)
Погода в Артемовске (Донецкая область, Украина) (105 км)
Погода в Гуляйполе (Запорожская область, Украина) (106 км)
Погода в Комсомольском (Донецкая область, Украина) (111 км)
Погода в Днепре (Днепропетровская область, Украина) (116 км)

Пояснения к столбцам:

Ветер - указаны скорость ветра в м/с - средняя за 10 мин, порывы в срок и между сроками (в фигурных скобках) и направление, откуда дует ветер: С - северный, СВ - северо-восточный, В - восточный, ЮВ - юго-восточный, Ю - южный, ЮЗ - юго-западный, З - западный, СЗ - северо-западный.
Видимость - горизонтальная дальность видимости в метрах или километрах. При видимости от 1 до 10 км при отсутствии осадков обычно наблюдается дымка, при ухудшении видимости до 1 км и менее - туман. В сухую погоду видимость может ухудшаться дымом, пылью или мглою.
Явления - указаны атмосферные явления, наблюдавшиеся в срок или в последний час перед сроком; фигурными скобками обозначены явления, наблюдавшиеся между сроками (за 1-3 часа до срока); квадратными скобками обозначены град или гололедные отложения с указанием их диаметра в мм.
Облачность - указаны через наклонную черту общая и нижняя облачность в баллах и высота нижней границы облаков в метрах; квадратными скобками обозначены формы облаков: Ci - перистые, Cs - перисто-слоистые, Cc - перисто-кучевые, Ac - высококучевые, As - высокослоистые, Sc - слоисто-кучевые, Ns - слоисто-дождевые, Cu - кучевые, Cb - кучево-дождевые. Подробнее классификацию облаков см. в Атласе облаков (PDF).
T - Температура воздуха - температура, измеренная на высоте 2 м над землей.
Td - Температура точки росы - температура, при понижении до которой содержащийся в воздухе водяной пар достигнет насыщения.
f - Относительная влажность воздуха - влажноcть воздуха, измеренная на высоте 2 м над землей.
Te - Эффективная температура - температура, которую ощущает одетый по сезону человек в тени. Характеристика душности погоды. При расчете учитывается влияние влажности воздуха и скорости ветра на теплоощущения человека.
Tes - Эффективная температура на солнце - температура, которую ощущает человек, с поправкой на солнечный нагрев. Характеристика знойности погоды. Зависит от высоты солнца над горизонтом, облачности и скорости ветра. Ночью, в пасмурную погоду, а также при ветре 12 м/с и более поправка равна нулю.
P - Атмосферное давление - приведенное к уровню моря атмосферное давление.
Po - Атмосферное давление - измеренное на уровне метеостанции атмосферное давление.
Tmin - Минимальная температура - минимум температуры воздуха на высоте 2 м над землей.
Tmax - Максимальная температура - максимум температуры воздуха на высоте 2 м над землей.
R - Количество осадков - Количество выпавших осадков за период времени, мм. При наведении курсора мыши на число - период времени, за который выпало указанное количество осадков.
R24 - Количество осадков - Количество выпавших осадков за 24 часа, мм.
S - Снежный покров - Высота снежного покрова, см. При наведении курсора мыши на число - состояние снежного покрова и степень покрытия местности в баллах.